KD9AQS Weather Reports


time (UTC)temp
C
wind
direction
speed
KPH
gust
KPH
rain 1hr
cm
rain 24hr
cm
rain mn
cm
humidity
%
barometer
mb
20260504214551 24 283 8.0 24.1 0.00 0.00 0.00 42 1011.8
20260504213049 25 274 8.0 17.7 0.00 0.00 0.00 41 1011.7
20260504211541 24 277 11.3 20.9 0.00 0.00 0.00 43 1011.8
20260504210038 24 269 6.4 16.1 0.00 0.00 0.00 44 1012.0
20260504204536 24 277 4.8 19.3 0.00 0.00 0.00 44 1012.2
20260504203034 24 278 9.7 19.3 0.00 0.00 0.00 43 1012.2
20260504201532 24 267 3.2 14.5 0.00 0.00 0.00 48 1012.4
20260504200039 23 248 6.4 19.3 0.00 0.00 0.00 47 1012.7
20260504194527 23 235 4.8 14.5 0.00 0.00 0.00 49 1012.8
20260504193023 23 215 4.8 16.1 0.00 0.00 0.00 48 1012.9
20260504191535 23 260 4.8 19.3 0.00 0.00 0.00 48 1013.5
20260504190018 23 265 6.4 17.7 0.00 0.00 0.00 50 1013.5
20260504184516 23 286 12.9 20.9 0.00 0.00 0.00 49 1013.7
20260504183032 23 296 8.0 16.1 0.00 0.00 0.00 48 1013.8
20260504181522 23 282 8.0 17.7 0.00 0.00 0.00 48 1014.1
20260504180010 23 286 8.0 16.1 0.00 0.00 0.00 51 1014.3
20260504174508 22 277 8.0 17.7 0.00 0.00 0.00 48 1014.4
20260504173005 22 192 6.4 22.5 0.00 0.00 0.00 51 1014.6
20260504171503 22 298 3.2 16.1 0.00 0.00 0.00 48 1014.8
20260504170109 22 172 8.0 17.7 0.00 0.00 0.00 49 1015.1
20260504120104 7 188 0.0 0.0 0.00 0.00 0.00 87 1017.1
20260504081536 8 188 0.0 1.6 0.00 0.00 0.00 76 1017.1
20260504050016 9 188 0.0 1.6 0.00 0.00 0.00 73 1017.4
20260504044521 9 188 0.0 3.2 0.00 0.00 0.00 74 1017.4
20260504043012 10 188 0.0 4.8 0.00 0.00 0.00 74 1017.4
20260504041508 10 188 0.0 1.6 0.00 0.00 0.00 69 1017.5
20260504040004 11 188 0.0 4.8 0.00 0.00 0.00 68 1017.2
20260504034503 10 187 1.6 4.8 0.00 0.00 0.00 70 1017.0
20260504033002 11 185 0.0 0.0 0.00 0.00 0.00 69 1016.9
20260504031502 11 185 0.0 3.2 0.00 0.00 0.00 68 1016.9
20260504030004 11 185 0.0 3.2 0.00 0.00 0.00 70 1016.6
20260504024505 11 184 0.0 3.2 0.00 0.00 0.00 69 1016.5
20260504023106 11 184 0.0 3.2 0.00 0.00 0.00 70 1016.5
20260504023001 11 184 0.0 3.2 0.00 0.00 0.00 70 1016.5
20260504021600 11 184 0.0 0.0 0.00 0.00 0.00 70 1016.3
20260504014600 12 184 0.0 0.0 0.00 0.00 0.00 66 1016.2
20260504013111 12 184 0.0 0.0 0.00 0.00 0.00 65 1016.3
20260504011557 13 184 0.0 0.0 0.00 0.00 0.00 63 1016.0
20260504010112 13 184 0.0 1.6 0.00 0.00 0.00 61 1016.1
20260504004625 15 186 1.6 3.2 0.00 0.00 0.00 59 1016.0
20260504003056 15 186 0.0 4.8 0.00 0.00 0.00 57 1015.8
20260504001606 16 186 0.0 1.6 0.00 0.00 0.00 53 1016.0
20260504000055 17 186 0.0 3.2 0.00 0.00 0.00 49 1016.0
20260503234552 18 187 0.0 4.8 0.00 0.00 0.00 44 1016.1
20260503233052 18 180 0.0 3.2 0.00 0.00 0.00 43 1016.2
20260503231650 18 185 3.2 9.7 0.00 0.00 0.00 42 1016.2
20260503230057 19 235 1.6 6.4 0.00 0.00 0.00 41 1016.4
20260503224547 18 244 3.2 11.3 0.00 0.00 0.00 38 1016.6
20260503223051 18 239 6.4 12.9 0.00 0.00 0.00 39 1016.7
20260503221545 18 285 3.2 17.7 0.00 0.00 0.00 40 1016.8
20260503220043 18 217 0.0 12.9 0.00 0.00 0.00 41 1016.8